Home > Weather > Rafsanjan > Past weeks

Flag for Iran Past Weather in Rafsanjan, Iran — Yesterday and Last 2 Weeks

Now
93 °F

Thunderstorms. Scattered clouds.


Feels Like: 89 °F
Forecast: 71 / 102 °F
Wind: 14 mph from Northwest

Location: Kerman Airport

Current Time: Jul 30, 2016 at 3:43:58 PM

Latest Report: Jul 30, 2016 at 3:00 PM


Visibility: N/A

Pressure: 29.89 "Hg (25.25 "Hg at 1515m altitude)

Humidity: 15%

Dew Point: 39 °F

Location of RafsanjanLocation

Past Weather in Rafsanjan — Graph

°F

Rafsanjan Temperature Yesterday

Maximum temperature yesterday: 100 °F (at 12:30 PM)
Minimum temperature yesterday: 77 °F (at 10:30 PM)
Average temperature yesterday: 85 °F

High & Low Weather Summary for the Past Weeks

 TemperatureHumidityPressure
High104 °F (Jul 27, 3:30 PM)64% (Jul 30, 6:30 AM)30.09 "Hg (Jul 30, 6:30 AM)
Low59 °F (Jul 16, 4:20 AM)1% (Jul 16, 3:30 PM)29.86 "Hg (Jul 23, 4:21 PM)
Average84 °F14%29.97 "Hg
* Reported Jul 15 2:30 PM — Jul 30 2:30 PM, Rafsanjan, Weather by CustomWeather, © 2016

Note: Actual official high and low records may vary slightly from our data, if they occured in-between our weather recording intervals... More about our weather records

Advertising

Rafsanjan Weather History for the Previous 24 Hours

Scroll right to see more
 ConditionsComfort  
Time TempWeatherWind HumidityBarometerVisibility
2:30 PM
Sat, Jul 30
97 °FScattered clouds.5 mph17%29.89 "HgN/A
1:30 PM97 °FPassing clouds.5 mph18%29.92 "HgN/A
12:30 PM93 °FPassing clouds.5 mph20%29.95 "HgN/A
11:30 AM91 °FSunny.5 mph23%29.98 "Hg10 mi
10:30 AM90 °FSunny.5 mph24%29.98 "Hg10 mi
9:30 AM88 °FSunny.No wind27%29.98 "Hg10 mi
8:30 AM82 °FSunny.No wind32%29.98 "Hg10 mi
7:30 AM72 °FSunny.No wind53%29.98 "Hg10 mi
6:30 AM66 °FClear.7 mph64%29.95 "Hg10 mi
5:30 AM68 °FClear.7 mph60%29.95 "Hg10 mi
4:30 AM70 °FPassing clouds.No wind57%29.92 "HgN/A
3:30 AM72 °FPassing clouds.7 mph53%29.95 "HgN/A
2:30 AM70 °FPassing clouds.7 mph57%29.92 "HgN/A
1:30 AM72 °FPassing clouds.5 mph50%29.95 "HgN/A
12:30 AM75 °FPassing clouds.7 mph41%29.95 "HgN/A
11:30 PM
Fri, Jul 29
77 °FPassing clouds.9 mph39%29.98 "HgN/A
10:30 PM77 °FPassing clouds.9 mph42%29.95 "HgN/A
9:30 PM79 °FPassing clouds.14 mph39%29.95 "HgN/A
8:30 PM79 °FScattered clouds.18 mph39%29.98 "HgN/A
7:30 PM81 °FScattered clouds.9 mph37%29.95 "HgN/A
6:30 PM81 °FScattered clouds.16 mph42%29.92 "HgN/A
5:30 PM82 °FPartly sunny.18 mph37%29.89 "HgN/A
4:30 PM81 °FPartly sunny.12 mph42%29.92 "Hg5 mi
3:30 PM81 °FThunderstorms. Partly sunny.35 mph45%29.92 "Hg5 mi
Weather by CustomWeather, © 2016

See weather overviewHow to use our weather pages